TimeEST,TemperatureF,Dew PointF,Humidity,Sea Level PressureIn,VisibilityMPH,Wind Direction,Wind SpeedMPH,Gust SpeedMPH,PrecipitationIn,Events,Conditions,WindDirDegrees,DateUTC
12:54 AM,19.9,10.0,65,29.82,9.0,WSW,16.1,-,0.00,Snow,Light Snow,250,2013-02-04 05:54:00
1:54 AM,19.0,9.0,65,29.83,9.0,West,10.4,-,0.00,Snow,Light Snow,260,2013-02-04 06:54:00
2:54 AM,19.0,10.0,68,29.84,9.0,West,12.7,-,0.00,,Overcast,260,2013-02-04 07:54:00
3:54 AM,19.0,9.0,65,29.83,10.0,WSW,13.8,-,N/A,,Overcast,240,2013-02-04 08:54:00
5:54 AM,19.9,10.0,65,29.86,9.0,WSW,19.6,-,0.00,Snow,Light Snow,250,2013-02-04 10:54:00
6:05 AM,19.4,10.4,68,29.86,2.0,West,18.4,28.8,0.00,Snow,Light Snow,260,2013-02-04 11:05:00
6:07 AM,19.4,12.2,74,29.86,0.8,West,19.6,28.8,0.00,Snow,Light Snow,260,2013-02-04 11:07:00
6:19 AM,19.4,12.2,74,29.86,0.8,West,17.3,-,0.00,Snow,Light Snow,270,2013-02-04 11:19:00
6:27 AM,19.4,14.0,80,29.87,0.5,West,13.8,23.0,0.00,Snow,Light Snow,270,2013-02-04 11:27:00
6:54 AM,19.0,14.0,81,29.89,0.5,West,13.8,-,0.00,Snow,Snow,270,2013-02-04 11:54:00
7:19 AM,19.4,14.0,80,29.88,0.5,West,10.4,-,0.02,Snow,Snow,270,2013-02-04 12:19:00
7:38 AM,19.4,14.0,80,29.89,0.5,West,12.7,-,0.03,Snow,Snow,260,2013-02-04 12:38:00
7:54 AM,19.0,14.0,81,29.91,0.2,West,11.5,-,0.04,Snow,Heavy Snow,260,2013-02-04 12:54:00
8:13 AM,19.4,12.2,74,29.90,0.8,West,12.7,20.7,0.00,Snow,Light Snow,270,2013-02-04 13:13:00
8:30 AM,19.4,10.4,68,29.90,1.0,West,17.3,-,0.00,Snow,Light Snow,260,2013-02-04 13:30:00
8:35 AM,19.4,10.4,68,29.90,2.5,WSW,18.4,-,0.00,Snow,Light Snow,250,2013-02-04 13:35:00
8:46 AM,19.4,10.4,68,29.90,4.0,West,16.1,-,0.00,Snow,Light Snow,260,2013-02-04 13:46:00
8:54 AM,19.0,10.0,68,29.92,5.0,West,16.1,23.0,0.00,Snow,Light Snow,260,2013-02-04 13:54:00
9:22 AM,19.4,10.4,68,29.91,6.0,West,17.3,-,0.00,Snow,Light Snow,260,2013-02-04 14:22:00
9:54 AM,19.9,10.0,65,29.92,9.0,West,18.4,23.0,0.00,,Overcast,270,2013-02-04 14:54:00
10:14 AM,19.4,10.4,68,29.91,7.0,West,16.1,-,0.00,Snow,Light Snow,270,2013-02-04 15:14:00
10:28 AM,19.4,10.4,68,29.91,1.8,West,16.1,-,0.00,Snow,Light Snow,280,2013-02-04 15:28:00
10:31 AM,19.4,10.4,68,29.91,0.8,WNW,15.0,23.0,0.00,Snow,Light Snow,290,2013-02-04 15:31:00
10:36 AM,19.4,12.2,74,29.91,1.5,WNW,13.8,-,0.00,Snow,Light Snow,290,2013-02-04 15:36:00
10:44 AM,19.4,12.2,74,29.91,2.0,WNW,13.8,-,0.00,Snow,Light Snow,300,2013-02-04 15:44:00
10:48 AM,19.4,12.2,74,29.91,1.2,West,12.7,-,0.00,Snow,Light Snow,280,2013-02-04 15:48:00
10:54 AM,19.9,12.9,74,29.93,0.8,West,8.1,-,0.01,Snow,Light Snow,280,2013-02-04 15:54:00
11:10 AM,19.4,14.0,80,29.91,0.5,West,11.5,-,0.00,Snow,Snow,280,2013-02-04 16:10:00
11:35 AM,19.4,14.0,80,29.91,0.8,West,12.7,-,0.01,Snow,Light Snow,280,2013-02-04 16:35:00
11:54 AM,19.0,12.0,74,29.92,1.0,WNW,12.7,-,0.01,Snow,Light Snow,300,2013-02-04 16:54:00
12:01 PM,19.4,12.2,74,29.91,0.8,WNW,10.4,-,0.00,Snow,Light Snow,290,2013-02-04 17:01:00
12:29 PM,19.4,12.2,74,29.91,1.0,WNW,11.5,-,0.00,Snow,Light Snow,300,2013-02-04 17:29:00
12:42 PM,19.4,12.2,74,29.91,2.0,WNW,11.5,-,0.00,Snow,Light Snow,300,2013-02-04 17:42:00
12:54 PM,19.0,12.0,74,29.92,2.0,NW,12.7,-,0.00,Snow,Light Snow,310,2013-02-04 17:54:00
1:04 PM,19.4,12.2,74,29.91,1.0,WNW,13.8,-,0.00,Snow,Light Snow,300,2013-02-04 18:04:00
1:05 PM,19.4,12.2,74,29.90,0.8,WNW,13.8,-,0.00,Snow,Light Snow,300,2013-02-04 18:05:00
1:27 PM,19.4,12.2,74,29.90,0.2,WNW,9.2,-,0.01,Snow,Heavy Snow,300,2013-02-04 18:27:00
1:39 PM,19.4,12.2,74,29.90,1.0,NW,9.2,-,0.01,Snow,Light Snow,310,2013-02-04 18:39:00
1:43 PM,19.4,12.2,74,29.90,0.8,NW,10.4,-,0.01,Snow,Light Snow,310,2013-02-04 18:43:00
1:54 PM,19.0,12.9,77,29.92,0.5,NW,9.2,-,0.02,Snow,Snow,310,2013-02-04 18:54:00
2:11 PM,19.4,12.2,74,29.91,1.0,WNW,8.1,-,0.00,Snow,Light Snow,300,2013-02-04 19:11:00
2:17 PM,19.4,12.2,74,29.90,2.0,WNW,8.1,-,0.00,Snow,Light Snow,300,2013-02-04 19:17:00
2:21 PM,19.4,12.2,74,29.90,1.0,NW,8.1,-,0.00,Snow,Light Snow,310,2013-02-04 19:21:00
2:27 PM,19.4,12.2,74,29.90,0.8,NW,6.9,-,0.01,Snow,Light Snow,320,2013-02-04 19:27:00
2:54 PM,19.0,12.9,77,29.92,0.5,WNW,6.9,-,0.02,Snow,Snow,290,2013-02-04 19:54:00
3:14 PM,19.4,14.0,80,29.91,1.0,NW,3.5,-,0.00,Snow,Light Snow,310,2013-02-04 20:14:00
3:30 PM,19.4,14.0,80,29.91,1.2,WNW,6.9,-,0.01,Snow,Light Snow,290,2013-02-04 20:30:00
3:43 PM,19.4,14.0,80,29.91,1.2,WNW,10.4,-,0.01,Snow,Light Snow,300,2013-02-04 20:43:00
3:54 PM,19.9,12.9,74,29.93,3.0,West,8.1,-,0.01,Snow,Light Snow,280,2013-02-04 20:54:00
4:22 PM,19.4,12.2,74,29.91,6.0,WNW,4.6,-,0.00,Snow,Light Snow,290,2013-02-04 21:22:00
4:54 PM,19.0,12.0,74,29.92,10.0,West,6.9,-,0.00,,Overcast,260,2013-02-04 21:54:00
5:54 PM,19.0,12.9,77,29.92,10.0,Calm,Calm,-,N/A,,Overcast,0,2013-02-04 22:54:00
6:54 PM,15.1,10.9,84,29.93,10.0,Calm,Calm,-,N/A,,Mostly Cloudy,0,2013-02-04 23:54:00
7:54 PM,12.9,8.1,81,29.94,10.0,Calm,Calm,-,N/A,,Overcast,0,2013-02-05 00:54:00
8:54 PM,10.9,8.1,88,29.94,9.0,Calm,Calm,-,N/A,,Overcast,0,2013-02-05 01:54:00
9:54 PM,14.0,10.0,84,29.94,9.0,Calm,Calm,-,0.00,Snow,Light Snow,0,2013-02-05 02:54:00
10:54 PM,14.0,10.9,88,29.94,9.0,Calm,Calm,-,0.00,Snow,Light Snow,0,2013-02-05 03:54:00
11:54 PM,17.1,14.0,88,29.95,9.0,Calm,Calm,-,0.00,Snow,Light Snow,0,2013-02-05 04:54:00